User: anonymous   Login
Location: Unspecified
(0.0000°N, 0.0000°E)
Time: 21:18:55
(UTC+00:00)
Language:

GOES 4 - Orbit

View from above orbital plane
View from above orbital plane
View from above satellite
View from above satellite

Ground track
Ground track

The orbit data is extracted from the following two-line orbital elements,

1 11964U 80074A   17141.95684767 -.00000145 +00000-0 +00000-0 0  9997
2 11964 014.2267 335.1766 0032875 012.1829 339.1548 00.99228338094554
Epoch (UTC): 21 May 2017 22:57:51
Eccentricity: 0.0032875
inclination: 14.2267°
perigee height: 35942 km
apogee height: 36221 km
right ascension of ascending node: 335.1766°
argument of perigee: 12.1829°
revolutions per day: 0.99228338
mean anomaly at epoch: 339.1548°
orbit number at epoch: 9455

The dashed part of the orbit path shows where the satellite is in the earth's shadow,  

DLR